Location: Myrnam
(53.6612°N, 111.2289°W)
Time: 21:02:59
(UTC+00:00)

BlueWalker 3 - Visible Passes

Search period start: 10 June 2023 00:00
Search period end: 20 June 2023 00:00
Orbit: 493 x 513 km, 53.2° (Epoch: 09 June)

Date Brightness Start Highest point End Pass type
(mag) Time Alt. Az. Time Alt. Az. Time Alt. Az.
10 Jun 2.2 04:53:25 10° W 04:57:11 53° SSW 05:00:58 10° SE visible
10 Jun 3.7 06:32:31 10° W 06:35:07 17° SW 06:36:05 16° SSW visible
11 Jun 3.8 06:12:04 10° W 06:14:38 17° SW 06:16:01 15° SSW visible
12 Jun 3.8 05:51:37 10° W 05:54:09 17° SW 05:55:59 13° S visible
13 Jun 3.9 05:31:10 10° W 05:33:39 16° SW 05:36:00 10° S visible
14 Jun 4.0 05:10:43 10° W 05:13:08 16° SW 05:15:33 10° S visible
15 Jun 4.0 04:50:14 10° W 04:52:36 16° SW 04:54:58 10° S visible
